Regional Weather Roundup
Issued by NWS

Home | Current Version | Previous Version | Text Only | Print | Product List | Glossary Off
Versions: 1 2 3 4 5 6 7 8 9 10 11 12 13 14 15 16 17 18 19 20 21 22 23 24 25 26 27 28 29 30 31 32 33 34 35 36 37 38 39 40 41 42 43 44 45 46 47 48 49 50

000
ASUS45 KTFX 291910
RWRMT
MONTANA REGIONAL WEATHER ROUNDUP
NATIONAL WEATHER SERVICE GREAT FALLS MT
100 PM MDT FRI MAY 29 2015

NOTE: "FAIR" INDICATES FEW OR NO CLOUDS BELOW 12000 FEET WITH NO
SIGNIFICANT WEATHER AND/OR OBSTRUCTIONS TO VISIBILITY.

MTZ001>007-043-292000-
WEST OF THE DIVIDE

CITY           SKY/WX    TMP DP  RH WIND       PRES   REMARKS
KALISPELL      CLEAR     68  42  38 VRB5      30.11F
MISSOULA       SUNNY     68  45  43 S6        30.12F
BUTTE          SUNNY     62  42  47 SE10      30.22F
MULLAN PASS    MOSUNNY   57  45  64 SE6       30.18F
DEER LODGE       N/A     64  45  48 S3        30.20F
EUREKA           N/A     70  45  40 NW5       30.09F
HAMILTON         N/A     68  46  45 VRB3      30.10F
LIBBY            N/A     66  52  59 CALM      30.10F
PLAINS           N/A     70  52  52 CALM      30.09F
RONAN            N/A     68  46  45 SE2       30.15F
$$

MTZ008-052>055-292000-
SOUTHWEST MONTANA

CITY           SKY/WX    TMP DP  RH WIND       PRES   REMARKS
BOZEMAN        SUNNY     62  48  60 VRB5      30.22F
DILLON         SUNNY     59  47  64 SW5       30.22F
W YELLOWSTONE  SUNNY     57  39  51 CALM      30.28F
THREE FORKS      N/A     61  61 100 S1        30.19F
$$

MTZ009-010-012-014-046-048-049-054-292000-
EAST SLOPES AND CENTRAL MONTANA

CITY           SKY/WX    TMP DP  RH WIND       PRES   REMARKS
CUT BANK       CLOUDY    54  44  69 SE17G23   30.21F
GREAT FALLS    MOSUNNY   58  47  66 E9        30.21F
MALMSTROM AFB  MOSUNNY   58  49  73 E12       30.21F
HELENA         SUNNY     65  48  54 E14       30.19F
CONRAD           N/A     53  50  90 E12       30.22F
$$

MTZ011-013-016-021-045-047-050-051-292000-
NORTH CENTRAL MONTANA

CITY           SKY/WX    TMP DP  RH WIND       PRES   REMARKS
HAVRE          PTSUNNY   61  41  47 E7        30.24F
LEWISTOWN      CLOUDY    56  45  66 E12       30.26F
N BAR RANCH    CLOUDY    50  41  71 VRB7G14   30.32F
CHINOOK          N/A     59  39  47 NE10G18   30.26F
FORT BENTON      N/A     61  45  55 E13G18    30.23F
$$

MTZ017>020-022>027-061-062-292000-
NORTHEAST MONTANA

CITY           SKY/WX    TMP DP  RH WIND       PRES   REMARKS
GLASGOW        SUNNY     54  32  43 MISG      30.32F
JORDAN           N/A     56  33  42 NE9       30.32F
SIDNEY         SUNNY     57  32  38 N14       30.32S
WOLF POINT     SUNNY     57  34  41 VRB5      30.34F
MALTA            N/A     58  34  40 NE6       30.26F
PLENTYWOOD       N/A     52  30  43 NE9       30.32F
POPLAR           N/A     54  28  37 NW6       30.34S
SCOBEY           N/A     50  31  48 NW9       30.30F
$$

MTZ028>42-056>058-292000-
SOUTHCENTRAL AND SOUTHEAST MONTANA

CITY           SKY/WX    TMP DP  RH WIND       PRES   REMARKS
BAKER          MOSUNNY   55  35  47 NW10      30.30S
BILLINGS       CLOUDY    53  43  68 E8        30.31F
LIVINGSTON     CLOUDY    57  46  66 E12       30.26F
MILES CITY     SUNNY     57  31  37 N8        30.31F
BIG TIMBER       N/A     52  45  76 E9        30.29F
EKALAKA          N/A     52  32  46 NW8       30.25S
LAUREL           N/A     53  43  69 NE6       30.27F
ROUNDUP          N/A     55  39  54 E5        30.19F
$$

REGIONAL REPORTS...DAKOTAS

CITY           SKY/WX    TMP DP  RH WIND       PRES   REMARKS
WILLISTON      SUNNY     54  33  45 NE9       30.32S
MINOT          CLOUDY    48  34  58 NW14      30.30R
DICKINSON      PTSUNNY   51  34  52 N10       30.27F
BEACH          FAIR      52  34  50 N10G17    30.31S
CROSBY         MOCLDY    50  32  50 N10G18    30.33S
WATFORD CITY   FAIR      50  36  57 N10G16    30.30S
BISMARCK       CLOUDY    53  34  48 N17G25    30.26S
GRAND FORKS    PTSUNNY   50  39  66 N25G32    30.18F
FARGO          CLOUDY    49  40  71 N24G35    30.15R
BUFFALO SD       N/A     53  37  54 N15       30.21S
RAPID CITY     CLOUDY    47  44  90 N20G30    30.25R FOG
$$

REGIONAL REPORTS...WYOMING/IDAHO/WASHINGTON

CITY           SKY/WX    TMP DP  RH WIND       PRES   REMARKS
GILLETTE       MOSUNNY   54  40  59 N14G21    30.29S
SHERIDAN       CLOUDY    49  44  83 CALM      30.32S
BUFFALO WY     CLOUDY    47  45  93 N16G24    30.31F
CODY           MOSUNNY   55  48  76 E6        30.28F
YELLOWSTONE LA   N/A     52  36  54 VRB3      30.34F
IDAHO FALLS    MOSUNNY   64  47  53 W6        30.22F
SALMON         CLOUDY    68  45  42 N9        30.13F
BOISE          SUNNY     81  40  23 SE15G30   30.07F
SPOKANE        PTSUNNY   74  48  39 E7        30.04S
$$

REGIONAL REPORTS...ALBERTA

CITY           SKY/WX    TMP DP  RH WIND       PRES   REMARKS
EDMONTON       PTSUNNY   57  28  33 SE14G22   30.27F
CALGARY        CLOUDY    55  37  50 S16G22    30.19F
LETHBRIDGE     PTSUNNY   61  46  59 E10G18    30.19F
$$

REGIONAL REPORTS...SASKATCHEWAN

CITY           SKY/WX    TMP DP  RH WIND       PRES   REMARKS
SWIFT CURRENT  SUNNY     52  28  40 E8        30.31F
REGINA         MOSUNNY   52  23  32 N9G17     30.35F
SASKATOON      MOSUNNY   52  21  30 VRB2      30.40F
$$



USA.gov is the U.S. government's official web portal to all federal, state and local government web resources and services.